Torna al catalogo

STARLINK-30971

AttivoComunicazioniVLEO
NORAD 58443·PAYLOAD·🇺🇸 United States

Lanciato Nov 28, 2023 da Cape Canaveral Space Force Station

Loading…

Prossimi Passaggi (prossime 24 ore)

TLE

AggiornatoSource: CelesTrak SupGP

Epoca: Sep 14, 2026, 22:20 UTC

1 58443C 23183G   26257.93104167  .00056399  00000+0  20423-2 0  2575
2 58443  43.0028  53.2510 0001549 276.8962  23.9182 15.27558493    13

Traccia STARLINK-30971 in tempo reale con AllMySat

Download on the App Store